Anzahl Datensätze: 287
min. Temperatur: 11.8 °C
max. Temperatur: 19.6 °C
max. Windgeschwindigkeit: 19.4 km/h
Niederschlagsumme: 3.0 mm
| Datum |
Zeit |
Temp °C |
Feuchte % |
Taupunkt °C |
Luftdruck hPa |
Wind km/h |
Windrichtung |
Strahlung w/m² |
Niederschlag mm |
|---|---|---|---|---|---|---|---|---|---|
| 27.08.2021 | 00:04 | 14.6 | 83 | 11.7 | 1014.0 | 4.7 | W | 0 | 3.0 |
| 27.08.2021 | 00:08 | 14.6 | 83 | 11.7 | 1014.0 | 4.7 | WNW | 0 | 0.0 |
| 27.08.2021 | 00:14 | 14.6 | 83 | 11.7 | 1014.0 | 4.7 | WNW | 0 | 0.0 |
| 27.08.2021 | 00:18 | 14.6 | 83 | 11.7 | 1014.0 | 4.7 | W | 0 | 0.0 |
| 27.08.2021 | 00:24 | 14.6 | 83 | 11.7 | 1014.0 | 4.7 | WNW | 0 | 0.0 |
| 27.08.2021 | 00:28 | 14.6 | 83 | 11.7 | 1014.0 | 4.7 | W | 0 | 0.0 |
| 27.08.2021 | 00:34 | 14.6 | 83 | 11.7 | 1014.0 | 4.7 | W | 0 | 0.0 |
| 27.08.2021 | 00:38 | 14.4 | 83 | 11.5 | 1013.9 | 4.7 | WNW | 0 | 0.0 |
| 27.08.2021 | 00:44 | 14.3 | 84 | 11.6 | 1013.9 | 4.7 | WNW | 0 | 0.0 |
| 27.08.2021 | 00:48 | 14.2 | 84 | 11.5 | 1013.9 | 4.7 | W | 0 | 0.0 |
| 27.08.2021 | 00:54 | 14.1 | 85 | 11.6 | 1014.0 | 4.7 | WNW | 0 | 0.0 |
| 27.08.2021 | 00:58 | 14.1 | 85 | 11.6 | 1014.0 | 4.7 | W | 0 | 0.0 |
| 27.08.2021 | 01:04 | 14.1 | 85 | 11.6 | 1014.0 | 4.7 | WNW | 0 | 0.0 |
| 27.08.2021 | 01:08 | 14.1 | 85 | 11.6 | 1014.0 | 4.7 | W | 0 | 0.0 |
| 27.08.2021 | 01:14 | 14.1 | 85 | 11.6 | 1014.0 | 3.2 | W | 0 | 0.0 |
| 27.08.2021 | 01:18 | 14.1 | 85 | 11.6 | 1013.9 | 3.2 | W | 0 | 0.0 |
| 27.08.2021 | 01:24 | 14.1 | 85 | 11.6 | 1013.9 | 3.2 | W | 0 | 0.0 |
| 27.08.2021 | 01:28 | 14.2 | 85 | 11.7 | 1013.9 | 3.2 | W | 0 | 0.0 |
| 27.08.2021 | 01:34 | 14.2 | 85 | 11.7 | 1013.9 | 3.2 | W | 0 | 0.0 |
| 27.08.2021 | 01:38 | 14.2 | 85 | 11.7 | 1013.9 | 3.2 | W | 0 | 0.0 |
| 27.08.2021 | 01:44 | 14.2 | 86 | 11.9 | 1013.9 | 3.2 | W | 0 | 0.0 |
| 27.08.2021 | 01:48 | 14.1 | 86 | 11.8 | 1013.9 | 3.2 | W | 0 | 0.0 |
| 27.08.2021 | 01:54 | 14.0 | 86 | 11.7 | 1013.9 | 3.2 | W | 0 | 0.0 |
| 27.08.2021 | 01:58 | 14.1 | 87 | 12.0 | 1013.8 | 3.2 | W | 0 | 0.0 |
| 27.08.2021 | 02:04 | 14.1 | 86 | 11.8 | 1013.7 | 4.7 | W | 0 | 0.0 |
| 27.08.2021 | 02:08 | 14.1 | 86 | 11.8 | 1013.7 | 4.7 | W | 0 | 0.0 |
| 27.08.2021 | 02:14 | 14.1 | 86 | 11.8 | 1013.6 | 4.7 | W | 0 | 0.0 |
| 27.08.2021 | 02:18 | 14.1 | 85 | 11.6 | 1013.6 | 4.7 | W | 0 | 0.0 |
| 27.08.2021 | 02:24 | 14.1 | 85 | 11.6 | 1013.6 | 3.2 | W | 0 | 0.0 |
| 27.08.2021 | 02:28 | 14.1 | 85 | 11.6 | 1013.6 | 3.2 | W | 0 | 0.0 |
| 27.08.2021 | 02:34 | 14.1 | 85 | 11.6 | 1013.6 | 1.4 | W | 0 | 0.0 |
| 27.08.2021 | 02:38 | 14.0 | 86 | 11.7 | 1013.6 | 1.4 | W | 0 | 0.0 |
| 27.08.2021 | 02:44 | 13.9 | 86 | 11.6 | 1013.6 | 0.0 | W | 0 | 0.0 |
| 27.08.2021 | 02:48 | 13.8 | 87 | 11.7 | 1013.7 | 0.0 | W | 0 | 0.0 |
| 27.08.2021 | 02:54 | 13.7 | 88 | 11.7 | 1013.7 | 0.0 | W | 0 | 0.0 |
| 27.08.2021 | 02:58 | 13.6 | 88 | 11.6 | 1013.8 | 0.0 | W | 0 | 0.0 |
| 27.08.2021 | 03:04 | 13.6 | 89 | 11.8 | 1013.8 | 0.0 | W | 0 | 0.0 |
| 27.08.2021 | 03:08 | 13.6 | 89 | 11.8 | 1013.7 | 0.0 | W | 0 | 0.0 |
| 27.08.2021 | 03:14 | 13.4 | 90 | 11.8 | 1013.7 | 0.0 | W | 0 | 0.0 |
| 27.08.2021 | 03:18 | 13.4 | 90 | 11.8 | 1013.9 | 0.0 | W | 0 | 0.0 |
| 27.08.2021 | 03:24 | 13.4 | 90 | 11.8 | 1013.9 | 0.0 | W | 0 | 0.0 |
| 27.08.2021 | 03:28 | 13.5 | 90 | 11.9 | 1013.9 | 0.0 | W | 0 | 0.0 |
| 27.08.2021 | 03:34 | 13.6 | 89 | 11.8 | 1013.9 | 0.0 | W | 0 | 0.0 |
| 27.08.2021 | 03:38 | 13.6 | 91 | 12.2 | 1013.9 | 0.0 | W | 0 | 0.0 |
| 27.08.2021 | 03:44 | 13.5 | 91 | 12.1 | 1013.9 | 0.0 | W | 0 | 0.0 |
| 27.08.2021 | 03:48 | 13.4 | 91 | 12.0 | 1014.0 | 0.0 | W | 0 | 0.0 |
| 27.08.2021 | 03:54 | 13.4 | 92 | 12.1 | 1014.0 | 0.0 | W | 0 | 0.0 |
| 27.08.2021 | 03:58 | 13.4 | 92 | 12.1 | 1014.1 | 0.0 | W | 0 | 0.0 |
| 27.08.2021 | 04:04 | 13.4 | 92 | 12.1 | 1014.1 | 0.0 | W | 0 | 0.0 |
| 27.08.2021 | 04:08 | 13.6 | 91 | 12.2 | 1014.0 | 0.0 | W | 0 | 0.0 |
| 27.08.2021 | 04:14 | 13.7 | 90 | 12.1 | 1014.1 | 0.0 | W | 0 | 0.0 |
| 27.08.2021 | 04:18 | 13.8 | 90 | 12.2 | 1014.1 | 0.0 | W | 0 | 0.0 |
| 27.08.2021 | 04:24 | 13.8 | 91 | 12.4 | 1014.1 | 0.0 | W | 0 | 0.0 |
| 27.08.2021 | 04:28 | 13.7 | 91 | 12.3 | 1014.1 | 0.0 | W | 0 | 0.0 |
| 27.08.2021 | 04:34 | 13.6 | 91 | 12.2 | 1014.1 | 0.0 | W | 0 | 0.0 |
| 27.08.2021 | 04:38 | 13.6 | 92 | 12.3 | 1014.1 | 0.0 | W | 0 | 0.0 |
| 27.08.2021 | 04:44 | 13.5 | 93 | 12.4 | 1014.1 | 0.0 | W | 0 | 0.0 |
| 27.08.2021 | 04:48 | 13.5 | 93 | 12.4 | 1014.2 | 0.0 | W | 0 | 0.0 |
| 27.08.2021 | 04:54 | 13.6 | 92 | 12.3 | 1014.3 | 0.0 | W | 0 | 0.0 |
| 27.08.2021 | 04:58 | 13.6 | 92 | 12.3 | 1014.3 | 0.0 | W | 0 | 0.0 |
| 27.08.2021 | 05:04 | 13.4 | 92 | 12.1 | 1014.3 | 0.0 | W | 0 | 0.0 |
| 27.08.2021 | 05:08 | 13.4 | 92 | 12.1 | 1014.2 | 0.0 | W | 0 | 0.0 |
| 27.08.2021 | 05:14 | 13.6 | 92 | 12.3 | 1014.2 | 0.0 | W | 0 | 0.0 |
| 27.08.2021 | 05:18 | 13.6 | 91 | 12.2 | 1014.1 | 0.0 | W | 0 | 0.0 |
| 27.08.2021 | 05:24 | 13.5 | 93 | 12.4 | 1014.1 | 0.0 | W | 0 | 0.0 |
| 27.08.2021 | 05:28 | 13.4 | 94 | 12.5 | 1014.1 | 0.0 | W | 0 | 0.0 |
| 27.08.2021 | 05:34 | 13.3 | 94 | 12.4 | 1014.1 | 0.0 | W | 0 | 0.0 |
| 27.08.2021 | 05:38 | 13.2 | 94 | 12.3 | 1014.1 | 0.0 | W | 0 | 0.0 |
| 27.08.2021 | 05:44 | 13.0 | 94 | 12.1 | 1014.1 | 0.0 | W | 0 | 0.0 |
| 27.08.2021 | 05:48 | 13.0 | 94 | 12.1 | 1014.1 | 0.0 | W | 0 | 0.0 |
| 27.08.2021 | 05:54 | 12.9 | 95 | 12.1 | 1014.1 | 0.0 | W | 0 | 0.0 |
| 27.08.2021 | 05:58 | 12.9 | 95 | 12.1 | 1014.1 | 0.0 | W | 0 | 0.0 |
| 27.08.2021 | 06:04 | 12.8 | 95 | 12.0 | 1014.1 | 0.0 | W | 0 | 0.0 |
| 27.08.2021 | 06:08 | 12.8 | 95 | 12.0 | 1014.1 | 0.0 | W | 0 | 0.0 |
| 27.08.2021 | 06:14 | 12.8 | 94 | 11.9 | 1014.2 | 0.0 | W | 0 | 0.0 |
| 27.08.2021 | 06:18 | 12.8 | 94 | 11.9 | 1014.3 | 0.0 | W | 0 | 0.0 |
| 27.08.2021 | 06:24 | 12.9 | 94 | 12.0 | 1014.3 | 0.0 | W | 0 | 0.0 |
| 27.08.2021 | 06:28 | 12.9 | 94 | 12.0 | 1014.4 | 0.0 | W | 0 | 0.0 |
| 27.08.2021 | 06:34 | 12.9 | 94 | 12.0 | 1014.5 | 0.0 | W | 0 | 0.0 |
| 27.08.2021 | 06:38 | 12.8 | 94 | 11.9 | 1014.4 | 0.0 | W | 5 | 0.0 |
| 27.08.2021 | 06:44 | 12.7 | 95 | 11.9 | 1014.5 | 0.0 | W | 7 | 0.0 |
| 27.08.2021 | 06:48 | 12.6 | 94 | 11.7 | 1014.5 | 0.0 | W | 11 | 0.0 |
| 27.08.2021 | 06:54 | 12.4 | 95 | 11.6 | 1014.5 | 0.0 | W | 12 | 0.0 |
| 27.08.2021 | 06:58 | 12.3 | 95 | 11.5 | 1014.6 | 0.0 | W | 14 | 0.0 |
| 27.08.2021 | 07:04 | 12.1 | 95 | 11.3 | 1014.7 | 0.0 | W | 18 | 0.0 |
| 27.08.2021 | 07:08 | 12.0 | 95 | 11.2 | 1014.8 | 0.0 | W | 19 | 0.0 |
| 27.08.2021 | 07:14 | 11.9 | 95 | 11.1 | 1014.7 | 0.0 | W | 23 | 0.0 |
| 27.08.2021 | 07:18 | 11.8 | 95 | 11.0 | 1014.7 | 0.0 | W | 25 | 0.0 |
| 27.08.2021 | 07:24 | 11.9 | 95 | 11.1 | 1014.8 | 0.0 | WNW | 26 | 0.0 |
| 27.08.2021 | 07:28 | 11.9 | 95 | 11.1 | 1014.8 | 0.0 | WNW | 30 | 0.0 |
| 27.08.2021 | 07:34 | 12.0 | 95 | 11.2 | 1014.9 | 0.0 | WNW | 33 | 0.0 |
| 27.08.2021 | 07:38 | 12.2 | 95 | 11.4 | 1014.9 | 0.0 | SSW | 33 | 0.0 |
| 27.08.2021 | 07:44 | 12.4 | 94 | 11.5 | 1015.0 | 0.0 | WNW | 33 | 0.0 |
| 27.08.2021 | 07:48 | 12.6 | 94 | 11.7 | 1015.0 | 0.0 | NW | 37 | 0.0 |
| 27.08.2021 | 07:54 | 12.8 | 93 | 11.7 | 1015.1 | 0.0 | W | 37 | 0.0 |
| 27.08.2021 | 07:58 | 12.9 | 92 | 11.6 | 1015.2 | 0.0 | WNW | 39 | 0.0 |
| 27.08.2021 | 08:04 | 13.1 | 91 | 11.7 | 1015.1 | 0.0 | NNW | 39 | 0.0 |
| 27.08.2021 | 08:08 | 13.2 | 91 | 11.8 | 1015.2 | 0.0 | NW | 40 | 0.0 |
| 27.08.2021 | 08:14 | 13.5 | 90 | 11.9 | 1015.3 | 0.0 | WNW | 40 | 0.0 |
| 27.08.2021 | 08:18 | 13.5 | 89 | 11.7 | 1015.3 | 0.0 | NW | 42 | 0.0 |
| 27.08.2021 | 08:24 | 13.7 | 88 | 11.7 | 1015.2 | 0.0 | NW | 111 | 0.0 |
| 27.08.2021 | 08:28 | 13.8 | 87 | 11.7 | 1015.3 | 0.0 | NW | 54 | 0.0 |
| 27.08.2021 | 08:34 | 14.0 | 87 | 11.9 | 1015.2 | 0.0 | NNW | 53 | 0.0 |
| 27.08.2021 | 08:38 | 14.1 | 86 | 11.8 | 1015.2 | 0.0 | NW | 214 | 0.0 |
| 27.08.2021 | 08:44 | 14.4 | 84 | 11.7 | 1015.3 | 1.4 | NW | 279 | 0.0 |
| 27.08.2021 | 08:48 | 14.5 | 82 | 11.5 | 1015.4 | 1.4 | NNW | 294 | 0.0 |
| 27.08.2021 | 08:54 | 14.6 | 81 | 11.4 | 1015.4 | 1.4 | N | 311 | 0.0 |
| 27.08.2021 | 08:58 | 14.7 | 82 | 11.7 | 1015.4 | 1.4 | NNW | 322 | 0.0 |
| 27.08.2021 | 09:04 | 14.8 | 82 | 11.8 | 1015.5 | 0.0 | N | 336 | 0.0 |
| 27.08.2021 | 09:08 | 15.0 | 81 | 11.8 | 1015.5 | 0.0 | NNO | 348 | 0.0 |
| 27.08.2021 | 09:14 | 15.1 | 78 | 11.3 | 1015.5 | 1.4 | NNW | 369 | 0.0 |
| 27.08.2021 | 09:18 | 15.3 | 77 | 11.3 | 1015.6 | 1.4 | N | 385 | 0.0 |
| 27.08.2021 | 09:24 | 15.4 | 77 | 11.4 | 1015.6 | 0.0 | NW | 403 | 0.0 |
| 27.08.2021 | 09:28 | 15.5 | 77 | 11.5 | 1015.6 | 0.0 | NO | 413 | 0.0 |
| 27.08.2021 | 09:34 | 15.8 | 76 | 11.6 | 1015.6 | 0.0 | OSO | 418 | 0.0 |
| 27.08.2021 | 09:38 | 16.1 | 76 | 11.9 | 1015.7 | 0.0 | OSO | 461 | 0.0 |
| 27.08.2021 | 09:44 | 15.9 | 77 | 11.9 | 1015.7 | 1.4 | OSO | 487 | 0.0 |
| 27.08.2021 | 09:48 | 15.9 | 77 | 11.9 | 1015.6 | 1.4 | OSO | 504 | 0.0 |
| 27.08.2021 | 09:54 | 15.7 | 77 | 11.7 | 1015.7 | 1.4 | NNW | 438 | 0.0 |
| 27.08.2021 | 09:58 | 15.7 | 75 | 11.3 | 1015.6 | 0.0 | NNW | 489 | 0.0 |
| 27.08.2021 | 10:04 | 16.1 | 73 | 11.3 | 1015.6 | 0.0 | WNW | 522 | 0.0 |
| 27.08.2021 | 10:08 | 16.3 | 74 | 11.7 | 1015.6 | 0.0 | NW | 459 | 0.0 |
| 27.08.2021 | 10:14 | 16.4 | 71 | 11.1 | 1015.7 | 0.0 | NNW | 367 | 0.0 |
| 27.08.2021 | 10:18 | 16.3 | 72 | 11.2 | 1015.7 | 1.4 | NNW | 564 | 0.0 |
| 27.08.2021 | 10:24 | 16.4 | 73 | 11.5 | 1015.8 | 1.4 | NW | 570 | 0.0 |
| 27.08.2021 | 10:28 | 16.8 | 72 | 11.7 | 1015.8 | 1.4 | WNW | 482 | 0.0 |
| 27.08.2021 | 10:34 | 16.8 | 71 | 11.5 | 1015.7 | 1.4 | NNW | 612 | 0.0 |
| 27.08.2021 | 10:38 | 16.7 | 68 | 10.8 | 1015.7 | 0.0 | NW | 603 | 0.0 |
| 27.08.2021 | 10:44 | 16.2 | 72 | 11.1 | 1015.7 | 0.0 | NNW | 158 | 0.0 |
| 27.08.2021 | 10:48 | 16.5 | 71 | 11.2 | 1015.7 | 0.0 | NNW | 719 | 0.0 |
| 27.08.2021 | 10:54 | 17.2 | 69 | 11.5 | 1015.7 | 1.4 | W | 722 | 0.0 |
| 27.08.2021 | 10:58 | 17.1 | 68 | 11.1 | 1015.7 | 3.2 | SSO | 183 | 0.0 |
| 27.08.2021 | 11:04 | 16.8 | 69 | 11.1 | 1015.7 | 4.7 | NW | 132 | 0.0 |
| 27.08.2021 | 11:08 | 16.4 | 73 | 11.5 | 1015.8 | 3.2 | NW | 137 | 0.0 |
| 27.08.2021 | 11:14 | 16.4 | 73 | 11.5 | 1015.8 | 3.2 | N | 744 | 0.0 |
| 27.08.2021 | 11:18 | 17.2 | 72 | 12.1 | 1015.7 | 3.2 | NNO | 631 | 0.0 |
| 27.08.2021 | 11:24 | 18.2 | 68 | 12.2 | 1015.8 | 4.7 | NO | 728 | 0.0 |
| 27.08.2021 | 11:28 | 18.6 | 67 | 12.4 | 1015.8 | 3.2 | WNW | 700 | 0.0 |
| 27.08.2021 | 11:34 | 18.1 | 68 | 12.1 | 1015.9 | 4.7 | NNO | 128 | 0.0 |
| 27.08.2021 | 11:38 | 17.0 | 70 | 11.5 | 1016.0 | 6.5 | N | 146 | 0.0 |
| 27.08.2021 | 11:44 | 16.8 | 69 | 11.1 | 1015.9 | 6.5 | SW | 272 | 0.0 |
| 27.08.2021 | 11:48 | 17.6 | 70 | 12.1 | 1015.9 | 4.7 | SW | 958 | 0.0 |
| 27.08.2021 | 11:54 | 17.6 | 69 | 11.8 | 1015.8 | 4.7 | WNW | 193 | 0.0 |
| 27.08.2021 | 11:58 | 17.3 | 70 | 11.8 | 1015.8 | 4.7 | O | 186 | 0.0 |
| 27.08.2021 | 12:04 | 17.2 | 69 | 11.5 | 1015.9 | 1.4 | W | 316 | 0.0 |
| 27.08.2021 | 12:08 | 17.5 | 68 | 11.5 | 1015.9 | 1.4 | SSW | 294 | 0.0 |
| 27.08.2021 | 12:14 | 17.3 | 68 | 11.3 | 1015.8 | 3.2 | WSW | 207 | 0.0 |
| 27.08.2021 | 12:18 | 17.3 | 69 | 11.6 | 1015.8 | 1.4 | WSW | 207 | 0.0 |
| 27.08.2021 | 12:24 | 17.1 | 70 | 11.6 | 1015.8 | 0.0 | NW | 162 | 0.0 |
| 27.08.2021 | 12:28 | 17.0 | 69 | 11.3 | 1015.8 | 1.4 | WNW | 132 | 0.0 |
| 27.08.2021 | 12:34 | 16.7 | 71 | 11.4 | 1015.8 | 3.2 | WNW | 130 | 0.0 |
| 27.08.2021 | 12:38 | 16.7 | 73 | 11.8 | 1015.8 | 3.2 | WNW | 141 | 0.0 |
| 27.08.2021 | 12:44 | 16.7 | 73 | 11.8 | 1015.8 | 3.2 | WNW | 158 | 0.0 |
| 27.08.2021 | 12:48 | 16.6 | 73 | 11.7 | 1015.8 | 1.4 | W | 176 | 0.0 |
| 27.08.2021 | 12:54 | 16.7 | 74 | 12.0 | 1015.8 | 3.2 | W | 200 | 0.0 |
| 27.08.2021 | 12:58 | 16.7 | 74 | 12.0 | 1015.8 | 1.4 | W | 236 | 0.0 |
| 27.08.2021 | 13:04 | 16.9 | 73 | 12.0 | 1015.8 | 1.4 | WNW | 257 | 0.0 |
| 27.08.2021 | 13:08 | 16.9 | 71 | 11.6 | 1015.7 | 1.4 | W | 301 | 0.0 |
| 27.08.2021 | 13:14 | 17.3 | 73 | 12.4 | 1015.7 | 1.4 | WNW | 390 | 0.0 |
| 27.08.2021 | 13:18 | 17.6 | 71 | 12.3 | 1015.7 | 1.4 | WSW | 397 | 0.0 |
| 27.08.2021 | 13:24 | 17.7 | 70 | 12.2 | 1015.7 | 0.0 | WNW | 334 | 0.0 |
| 27.08.2021 | 13:28 | 17.6 | 69 | 11.8 | 1015.7 | 1.4 | WNW | 279 | 0.0 |
| 27.08.2021 | 13:34 | 17.3 | 70 | 11.8 | 1015.7 | 1.4 | W | 244 | 0.0 |
| 27.08.2021 | 13:38 | 17.3 | 70 | 11.8 | 1015.7 | 1.4 | WSW | 246 | 0.0 |
| 27.08.2021 | 13:44 | 17.4 | 70 | 11.9 | 1015.8 | 1.4 | W | 374 | 0.0 |
| 27.08.2021 | 13:48 | 17.7 | 70 | 12.2 | 1015.7 | 1.4 | WNW | 401 | 0.0 |
| 27.08.2021 | 13:54 | 17.8 | 71 | 12.5 | 1015.7 | 0.0 | NW | 345 | 0.0 |
| 27.08.2021 | 13:58 | 17.8 | 69 | 12.0 | 1015.7 | 1.4 | NW | 311 | 0.0 |
| 27.08.2021 | 14:04 | 17.7 | 69 | 11.9 | 1015.8 | 4.7 | NNW | 253 | 0.0 |
| 27.08.2021 | 14:08 | 17.6 | 67 | 11.4 | 1015.8 | 4.7 | NW | 250 | 0.0 |
| 27.08.2021 | 14:14 | 17.6 | 70 | 12.1 | 1015.8 | 3.2 | WNW | 267 | 0.0 |
| 27.08.2021 | 14:18 | 17.7 | 70 | 12.2 | 1015.8 | 1.4 | WSW | 295 | 0.0 |
| 27.08.2021 | 14:24 | 17.8 | 69 | 12.0 | 1015.8 | 1.4 | WNW | 316 | 0.0 |
| 27.08.2021 | 14:28 | 17.8 | 68 | 11.8 | 1015.7 | 3.2 | NW | 366 | 0.0 |
| 27.08.2021 | 14:34 | 18.2 | 67 | 12.0 | 1015.8 | 3.2 | WNW | 550 | 0.0 |
| 27.08.2021 | 14:38 | 18.5 | 68 | 12.5 | 1015.8 | 3.2 | WSW | 466 | 0.0 |
| 27.08.2021 | 14:44 | 18.3 | 67 | 12.1 | 1015.7 | 3.2 | WNW | 504 | 0.0 |
| 27.08.2021 | 14:48 | 18.5 | 65 | 11.8 | 1015.6 | 3.2 | WNW | 631 | 0.0 |
| 27.08.2021 | 14:54 | 18.4 | 65 | 11.7 | 1015.6 | 3.2 | SSW | 519 | 0.0 |
| 27.08.2021 | 14:58 | 18.6 | 65 | 11.9 | 1015.5 | 4.7 | W | 555 | 0.0 |
| 27.08.2021 | 15:04 | 19.0 | 65 | 12.3 | 1015.5 | 3.2 | W | 436 | 0.0 |
| 27.08.2021 | 15:08 | 18.8 | 64 | 11.8 | 1015.5 | 3.2 | WSW | 434 | 0.0 |
| 27.08.2021 | 15:14 | 18.5 | 65 | 11.8 | 1015.6 | 6.5 | SSW | 341 | 0.0 |
| 27.08.2021 | 15:18 | 18.4 | 64 | 11.5 | 1015.5 | 4.7 | WSW | 278 | 0.0 |
| 27.08.2021 | 15:24 | 18.5 | 67 | 12.3 | 1015.5 | 1.4 | WSW | 271 | 0.0 |
| 27.08.2021 | 15:28 | 18.4 | 67 | 12.2 | 1015.5 | 1.4 | W | 295 | 0.0 |
| 27.08.2021 | 15:34 | 18.3 | 68 | 12.3 | 1015.5 | 3.2 | WSW | 207 | 0.0 |
| 27.08.2021 | 15:38 | 18.1 | 67 | 11.9 | 1015.5 | 3.2 | W | 149 | 0.0 |
| 27.08.2021 | 15:44 | 17.8 | 69 | 12.0 | 1015.3 | 3.2 | WSW | 151 | 0.0 |
| 27.08.2021 | 15:48 | 17.7 | 70 | 12.2 | 1015.3 | 3.2 | WSW | 167 | 0.0 |
| 27.08.2021 | 15:54 | 17.8 | 71 | 12.5 | 1015.4 | 3.2 | W | 281 | 0.0 |
| 27.08.2021 | 15:58 | 18.4 | 67 | 12.2 | 1015.3 | 3.2 | WSW | 664 | 0.0 |
| 27.08.2021 | 16:04 | 18.9 | 66 | 12.4 | 1015.2 | 4.7 | WSW | 645 | 0.0 |
| 27.08.2021 | 16:08 | 19.1 | 66 | 12.6 | 1015.1 | 6.5 | SSW | 636 | 0.0 |
| 27.08.2021 | 16:14 | 19.5 | 65 | 12.7 | 1015.0 | 4.7 | WNW | 649 | 0.0 |
| 27.08.2021 | 16:18 | 19.6 | 64 | 12.6 | 1015.0 | 4.7 | WSW | 390 | 0.0 |
| 27.08.2021 | 16:24 | 19.6 | 65 | 12.8 | 1014.9 | 6.5 | SSW | 821 | 0.0 |
| 27.08.2021 | 16:28 | 19.4 | 64 | 12.4 | 1014.9 | 6.5 | SW | 239 | 0.0 |
| 27.08.2021 | 16:34 | 19.2 | 65 | 12.5 | 1014.9 | 4.7 | SSW | 241 | 0.0 |
| 27.08.2021 | 16:38 | 18.9 | 64 | 11.9 | 1014.9 | 3.2 | S | 227 | 0.0 |
| 27.08.2021 | 16:44 | 19.5 | 67 | 13.2 | 1014.8 | 4.7 | SSW | 181 | 0.0 |
| 27.08.2021 | 16:48 | 19.2 | 64 | 12.2 | 1014.8 | 6.5 | SSO | 98 | 0.0 |
| 27.08.2021 | 16:54 | 18.6 | 66 | 12.1 | 1014.8 | 7.9 | SW | 76 | 0.0 |
| 27.08.2021 | 16:58 | 18.3 | 68 | 12.3 | 1014.8 | 4.7 | WNW | 62 | 0.0 |
| 27.08.2021 | 17:04 | 18.1 | 70 | 12.5 | 1014.9 | 1.4 | S | 60 | 0.0 |
| 27.08.2021 | 17:08 | 17.9 | 72 | 12.8 | 1014.9 | 0.0 | SSW | 76 | 0.0 |
| 27.08.2021 | 17:14 | 17.9 | 71 | 12.6 | 1014.8 | 1.4 | SSW | 72 | 0.0 |
| 27.08.2021 | 17:18 | 17.9 | 70 | 12.4 | 1014.9 | 1.4 | SSW | 44 | 0.0 |
| 27.08.2021 | 17:24 | 17.9 | 70 | 12.4 | 1014.9 | 0.0 | SSW | 26 | 0.0 |
| 27.08.2021 | 17:28 | 17.8 | 73 | 12.9 | 1014.9 | 0.0 | SSW | 23 | 0.0 |
| 27.08.2021 | 17:34 | 17.7 | 72 | 12.6 | 1014.9 | 0.0 | SSW | 42 | 0.0 |
| 27.08.2021 | 17:38 | 17.7 | 72 | 12.6 | 1014.9 | 0.0 | SSW | 67 | 0.0 |
| 27.08.2021 | 17:44 | 17.8 | 74 | 13.1 | 1015.0 | 0.0 | WNW | 113 | 0.0 |
| 27.08.2021 | 17:48 | 17.8 | 73 | 12.9 | 1014.9 | 0.0 | WNW | 128 | 0.0 |
| 27.08.2021 | 17:54 | 18.1 | 71 | 12.8 | 1015.0 | 0.0 | W | 109 | 0.0 |
| 27.08.2021 | 17:58 | 18.2 | 71 | 12.9 | 1015.0 | 1.4 | NNW | 102 | 0.0 |
| 27.08.2021 | 18:04 | 18.2 | 71 | 12.9 | 1015.0 | 3.2 | NW | 130 | 0.0 |
| 27.08.2021 | 18:08 | 18.1 | 70 | 12.5 | 1015.0 | 3.2 | WNW | 135 | 0.0 |
| 27.08.2021 | 18:14 | 17.9 | 71 | 12.6 | 1015.1 | 3.2 | NW | 146 | 0.0 |
| 27.08.2021 | 18:18 | 17.9 | 71 | 12.6 | 1015.0 | 1.4 | WNW | 148 | 0.0 |
| 27.08.2021 | 18:24 | 18.1 | 71 | 12.8 | 1015.1 | 1.4 | W | 102 | 0.0 |
| 27.08.2021 | 18:28 | 17.9 | 71 | 12.6 | 1015.1 | 1.4 | NW | 79 | 0.0 |
| 27.08.2021 | 18:34 | 17.9 | 71 | 12.6 | 1015.1 | 3.2 | WNW | 69 | 0.0 |
| 27.08.2021 | 18:38 | 17.8 | 70 | 12.3 | 1015.1 | 3.2 | WNW | 62 | 0.0 |
| 27.08.2021 | 18:44 | 17.7 | 71 | 12.4 | 1015.2 | 3.2 | W | 44 | 0.0 |
| 27.08.2021 | 18:48 | 17.5 | 72 | 12.4 | 1015.2 | 3.2 | W | 37 | 0.0 |
| 27.08.2021 | 18:54 | 17.3 | 74 | 12.6 | 1015.2 | 3.2 | WNW | 30 | 0.0 |
| 27.08.2021 | 18:58 | 17.3 | 72 | 12.2 | 1015.3 | 3.2 | WNW | 33 | 0.0 |
| 27.08.2021 | 19:04 | 17.1 | 74 | 12.4 | 1015.4 | 4.7 | N | 39 | 0.0 |
| 27.08.2021 | 19:08 | 16.8 | 76 | 12.5 | 1015.4 | 6.5 | WNW | 42 | 0.0 |
| 27.08.2021 | 19:14 | 16.4 | 79 | 12.7 | 1015.4 | 4.7 | WNW | 56 | 0.0 |
| 27.08.2021 | 19:18 | 16.2 | 80 | 12.7 | 1015.3 | 3.2 | WNW | 56 | 0.0 |
| 27.08.2021 | 19:24 | 16.1 | 82 | 13.0 | 1015.3 | 0.0 | WNW | 39 | 0.0 |
| 27.08.2021 | 19:28 | 16.1 | 83 | 13.2 | 1015.4 | 0.0 | WNW | 28 | 0.0 |
| 27.08.2021 | 19:34 | 15.9 | 83 | 13.0 | 1015.4 | 0.0 | WNW | 18 | 0.0 |
| 27.08.2021 | 19:38 | 15.9 | 83 | 13.0 | 1015.5 | 0.0 | WNW | 14 | 0.0 |
| 27.08.2021 | 19:44 | 15.7 | 85 | 13.2 | 1015.5 | 0.0 | WNW | 14 | 0.0 |
| 27.08.2021 | 19:48 | 15.7 | 85 | 13.2 | 1015.5 | 0.0 | WNW | 14 | 0.0 |
| 27.08.2021 | 19:54 | 15.6 | 86 | 13.3 | 1015.5 | 0.0 | WNW | 7 | 0.0 |
| 27.08.2021 | 19:58 | 15.5 | 86 | 13.2 | 1015.5 | 0.0 | WNW | 5 | 0.0 |
| 27.08.2021 | 20:04 | 15.3 | 87 | 13.1 | 1015.6 | 0.0 | WSW | 0 | 0.0 |
| 27.08.2021 | 20:08 | 15.3 | 87 | 13.1 | 1015.6 | 0.0 | WSW | 0 | 0.0 |
| 27.08.2021 | 20:14 | 15.4 | 86 | 13.1 | 1015.6 | 1.4 | W | 0 | 0.0 |
| 27.08.2021 | 20:18 | 15.6 | 83 | 12.7 | 1015.6 | 3.2 | W | 0 | 0.0 |
| 27.08.2021 | 20:24 | 15.7 | 83 | 12.8 | 1015.8 | 6.5 | WNW | 0 | 0.0 |
| 27.08.2021 | 20:28 | 15.6 | 84 | 12.9 | 1015.8 | 7.9 | WNW | 0 | 0.0 |
| 27.08.2021 | 20:34 | 15.3 | 86 | 13.0 | 1015.8 | 4.7 | W | 0 | 0.2 |
| 27.08.2021 | 20:38 | 15.2 | 87 | 13.0 | 1015.9 | 1.4 | W | 0 | 0.2 |
| 27.08.2021 | 20:44 | 14.9 | 89 | 13.1 | 1015.8 | 0.0 | W | 0 | 0.2 |
| 27.08.2021 | 20:48 | 14.8 | 90 | 13.2 | 1015.9 | 0.0 | W | 0 | 0.2 |
| 27.08.2021 | 20:54 | 14.7 | 90 | 13.1 | 1016.0 | 0.0 | W | 0 | 0.2 |
| 27.08.2021 | 20:58 | 14.7 | 90 | 13.1 | 1016.0 | 0.0 | W | 0 | 0.2 |
| 27.08.2021 | 21:04 | 14.7 | 91 | 13.2 | 1015.9 | 0.0 | SW | 0 | 0.2 |
| 27.08.2021 | 21:08 | 14.6 | 91 | 13.1 | 1015.9 | 1.4 | SW | 0 | 0.2 |
| 27.08.2021 | 21:14 | 14.5 | 91 | 13.0 | 1016.1 | 1.4 | SSW | 0 | 0.2 |
| 27.08.2021 | 21:24 | 14.4 | 91 | 12.9 | 1016.1 | 1.4 | SW | 0 | 0.2 |
| 27.08.2021 | 21:28 | 14.6 | 90 | 13.0 | 1016.1 | 3.2 | WSW | 0 | 0.2 |
| 27.08.2021 | 21:34 | 14.6 | 90 | 13.0 | 1016.1 | 1.4 | WSW | 0 | 0.2 |
| 27.08.2021 | 21:38 | 14.6 | 90 | 13.0 | 1016.1 | 1.4 | WSW | 0 | 0.2 |
| 27.08.2021 | 21:44 | 14.6 | 90 | 13.0 | 1016.2 | 0.0 | WSW | 0 | 0.2 |
| 27.08.2021 | 21:48 | 14.6 | 89 | 12.8 | 1016.2 | 0.0 | WSW | 0 | 0.2 |
| 27.08.2021 | 21:54 | 14.6 | 90 | 13.0 | 1016.2 | 0.0 | WSW | 0 | 0.2 |
| 27.08.2021 | 21:58 | 14.6 | 89 | 12.8 | 1016.2 | 1.4 | W | 0 | 0.2 |
| 27.08.2021 | 22:04 | 14.6 | 89 | 12.8 | 1016.2 | 3.2 | W | 0 | 0.2 |
| 27.08.2021 | 22:08 | 14.6 | 89 | 12.8 | 1016.2 | 3.2 | WSW | 0 | 0.2 |
| 27.08.2021 | 22:14 | 14.7 | 88 | 12.7 | 1016.2 | 3.2 | WSW | 0 | 0.2 |
| 27.08.2021 | 22:18 | 14.7 | 88 | 12.7 | 1016.2 | 1.4 | WSW | 0 | 0.2 |
| 27.08.2021 | 22:24 | 14.7 | 87 | 12.6 | 1016.2 | 0.0 | WSW | 0 | 0.2 |
| 27.08.2021 | 22:28 | 14.8 | 87 | 12.7 | 1016.2 | 0.0 | NW | 0 | 0.2 |
| 27.08.2021 | 22:34 | 14.8 | 88 | 12.8 | 1016.2 | 1.4 | W | 0 | 0.2 |
| 27.08.2021 | 22:38 | 14.8 | 87 | 12.7 | 1016.2 | 3.2 | W | 0 | 0.2 |
| 27.08.2021 | 22:44 | 14.7 | 88 | 12.7 | 1016.1 | 3.2 | W | 0 | 0.2 |
| 27.08.2021 | 22:48 | 14.7 | 87 | 12.6 | 1016.2 | 1.4 | WNW | 0 | 0.2 |
| 27.08.2021 | 22:54 | 14.8 | 86 | 12.5 | 1016.2 | 1.4 | WNW | 0 | 0.2 |
| 27.08.2021 | 22:58 | 14.7 | 86 | 12.4 | 1016.1 | 0.0 | WNW | 0 | 0.2 |
| 27.08.2021 | 23:04 | 14.7 | 86 | 12.4 | 1016.3 | 0.0 | WNW | 0 | 0.2 |
| 27.08.2021 | 23:08 | 14.7 | 88 | 12.7 | 1016.2 | 0.0 | WNW | 0 | 0.2 |
| 27.08.2021 | 23:14 | 14.5 | 89 | 12.7 | 1016.2 | 0.0 | WNW | 0 | 0.2 |
| 27.08.2021 | 23:18 | 14.5 | 89 | 12.7 | 1016.2 | 0.0 | WNW | 0 | 0.2 |
| 27.08.2021 | 23:24 | 14.3 | 90 | 12.7 | 1016.3 | 0.0 | WNW | 0 | 0.2 |
| 27.08.2021 | 23:28 | 14.3 | 90 | 12.7 | 1016.3 | 0.0 | WNW | 0 | 0.2 |
| 27.08.2021 | 23:34 | 14.2 | 90 | 12.6 | 1016.2 | 0.0 | WNW | 0 | 0.2 |
| 27.08.2021 | 23:38 | 14.2 | 91 | 12.8 | 1016.2 | 0.0 | WNW | 0 | 0.2 |
| 27.08.2021 | 23:44 | 14.1 | 91 | 12.7 | 1016.2 | 0.0 | W | 0 | 0.2 |
| 27.08.2021 | 23:48 | 14.2 | 90 | 12.6 | 1016.1 | 1.4 | W | 0 | 0.2 |
| 27.08.2021 | 23:54 | 14.3 | 89 | 12.5 | 1016.1 | 3.2 | W | 0 | 0.2 |
| 27.08.2021 | 23:58 | 14.3 | 89 | 12.5 | 1016.1 | 3.2 | W | 0 | 0.2 |